Zurück zum Katalog

SL-16 DEB

AktivLEO
NORAD 31795·DEBRIS·🇷🇺 Russia

Gestartet Jun 29, 2007 von Baikonur Cosmodrome

Loading…

Nächste Überflüge (nächste 24 Stunden)

TLE

AktuellSource: Space-Track

Epoche: Sep 14, 2026, 09:11 UTC

1 31795U 07029D   26257.38274852  .00000038  00000-0  79724-4 0  9998
2 31795  70.9479 129.2991 0223344 337.4562 199.0037 13.68647049959420

Verfolge SL-16 DEB in Echtzeit mit AllMySat

Download on the App Store